Regional Weather Roundup
Issued by NWS

Home | Current Version | Previous Version | Text Only | Print | Product List | Glossary Off
Versions: 1 2 3 4 5 6 7 8 9 10 11 12 13 14 15 16 17 18 19 20 21 22 23 24 25 26 27 28 29 30 31 32 33 34 35 36 37 38 39 40 41 42 43 44 45 46 47 48 49 50

000
ASUS43 KLMK 261402
RWRKY
KENTUCKY REGIONAL WEATHER ROUNDUP
NATIONAL WEATHER SERVICE LOUISVILLE KY
900 AM EST MON JAN 26 2015

NOTE "FAIR" INDICATES FEW OR NO CLOUDS BELOW 12,000 FEET
WITH NO SIGNIFICANT WEATHER AND/OR OBSTRUCTIONS TO VISIBILITY.

KYZ001>023-026-027-061>063-070>075-261500-
WESTERN AND SOUTH CENTRAL KENTUCKY

CITY           SKY/WX    TMP DP  RH WIND       PRES   REMARKS
PADUCAH        PTCLDY    30  24  78 NW10      30.05R WCI  21
HENDERSON      CLOUDY    30  25  80 NW10      30.01R WCI  21
OWENSBORO      CLOUDY    31  27  85 NW8       30.00R WCI  24
HOPKINSVILLE   CLOUDY    32  28  85 NW10      29.99S WCI  23
BOWLING GREEN  CLOUDY    30  24  78 NW8       29.96S WCI  22
GLASGOW        NOT AVBL
$$

KYZ024-025-028>034-038-045-046-053-261500-
NORTH CENTRAL KENTUCKY

CITY           SKY/WX    TMP DP  RH WIND       PRES   REMARKS
LOUISVILLE/SDF CLOUDY    26  20  77 NW12      29.94R WCI  16
LOUISVILLE/LOU CLOUDY    26  19  74 NW9       29.94R WCI  17
FORT KNOX      CLOUDY    26  21  83 NW13G21   29.93R WCI  15
$$

KYZ035>037-039>044-047>052-055>060-089>105-261500-
NORTHEAST KENTUCKY

CITY           SKY/WX    TMP DP  RH WIND       PRES   REMARKS
LEXINGTON      CLOUDY    23  20  88 NW15      29.87R WCI  10
COVINGTON      PTSUNNY   21  16  81 NW12      29.87R WCI   9
FRANKFORT      CLOUDY    23  18  81 NW13G18   29.88R WCI  11
$$

KYZ054-064>069-076>088-106>120-261500-
SOUTHEAST KENTUCKY

CITY           SKY/WX    TMP DP  RH WIND       PRES   REMARKS
JACKSON        LGT SNOW  28  26  92 W10G16    29.76R VSB 1   WCI  19
LONDON         CLOUDY    30  24  78 NW12      29.82R WCI  20
SOMERSET       NOT AVBL
MIDDLESBORO    CLOUDY    35  31  84 N5        29.79R WCI  31
MONTICELLO     CLOUDY    29  27  92 NW15      29.91R WCI  18
$$



USA.gov is the U.S. government's official web portal to all federal, state and local government web resources and services.